TimeEDT,TemperatureF,Dew PointF,Humidity,Sea Level PressureIn,VisibilityMPH,Wind Direction,Wind SpeedMPH,Gust SpeedMPH,PrecipitationIn,Events,Conditions,WindDirDegrees,DateUTC
12:01 AM,60.8,59.0,94,30.11,3.0,Calm,Calm,-,0.01,Rain,Light Rain,0,2013-07-02 04:01:00
12:29 AM,60.8,59.0,94,30.11,8.0,Calm,Calm,-,0.01,Rain,Light Rain,0,2013-07-02 04:29:00
12:39 AM,60.8,59.0,94,30.11,4.0,Calm,Calm,-,0.02,Rain,Light Rain,0,2013-07-02 04:39:00
12:54 AM,61.0,59.0,93,30.11,6.0,Calm,Calm,-,0.02,Rain,Light Rain,0,2013-07-02 04:54:00
1:54 AM,61.0,57.9,90,30.10,10.0,North,4.6,-,0.01,,Overcast,360,2013-07-02 05:54:00
2:54 AM,61.0,57.9,90,30.10,10.0,North,3.5,-,0.03,Rain,Light Rain,10,2013-07-02 06:54:00
3:54 AM,61.0,59.0,93,30.11,5.0,Calm,Calm,-,0.00,,Overcast,0,2013-07-02 07:54:00
4:27 AM,60.8,59.0,94,30.11,10.0,Calm,Calm,-,N/A,,Overcast,0,2013-07-02 08:27:00
4:36 AM,60.8,59.0,94,30.11,9.0,Calm,Calm,-,N/A,,Overcast,0,2013-07-02 08:36:00
4:47 AM,60.8,59.0,94,30.11,10.0,Calm,Calm,-,N/A,,Overcast,0,2013-07-02 08:47:00
4:54 AM,61.0,59.0,93,30.11,8.0,Calm,Calm,-,N/A,,Overcast,0,2013-07-02 08:54:00
5:54 AM,62.1,59.0,90,30.13,10.0,Calm,Calm,-,N/A,,Overcast,0,2013-07-02 09:54:00
6:32 AM,62.6,60.8,94,30.14,10.0,Calm,Calm,-,N/A,,Overcast,0,2013-07-02 10:32:00
6:46 AM,62.6,60.8,94,30.14,10.0,Calm,Calm,-,N/A,,Overcast,0,2013-07-02 10:46:00
6:54 AM,62.1,60.1,93,30.14,10.0,Calm,Calm,-,N/A,,Overcast,0,2013-07-02 10:54:00
7:10 AM,62.6,60.8,94,30.15,10.0,Calm,Calm,-,N/A,,Overcast,0,2013-07-02 11:10:00
7:54 AM,64.0,60.1,87,30.14,10.0,Calm,Calm,-,N/A,,Overcast,0,2013-07-02 11:54:00
8:02 AM,64.4,60.8,88,30.15,10.0,Calm,Calm,-,N/A,,Overcast,0,2013-07-02 12:02:00
8:51 AM,64.4,60.8,88,30.15,10.0,Calm,Calm,-,0.00,,Mostly Cloudy,0,2013-07-02 12:51:00
8:54 AM,64.9,61.0,87,30.15,10.0,Calm,Calm,-,0.00,,Mostly Cloudy,0,2013-07-02 12:54:00
9:19 AM,66.2,62.6,88,30.15,10.0,Calm,Calm,-,N/A,,Mostly Cloudy,0,2013-07-02 13:19:00
10:08 AM,68.0,62.6,83,30.14,10.0,Calm,Calm,-,N/A,,Overcast,0,2013-07-02 14:08:00
10:19 AM,68.0,62.6,83,30.14,10.0,Calm,Calm,-,N/A,,Overcast,0,2013-07-02 14:19:00
10:30 AM,69.8,62.6,78,30.15,10.0,Calm,Calm,-,N/A,,Overcast,0,2013-07-02 14:30:00
10:54 AM,70.0,64.0,81,30.15,10.0,Calm,Calm,-,N/A,,Overcast,0,2013-07-02 14:54:00
11:51 AM,73.4,66.2,78,30.14,10.0,Calm,Calm,-,N/A,,Scattered Clouds,0,2013-07-02 15:51:00
11:54 AM,73.9,66.0,76,30.13,10.0,Calm,Calm,-,N/A,,Partly Cloudy,0,2013-07-02 15:54:00
12:54 PM,75.9,66.9,74,30.13,10.0,Calm,Calm,-,N/A,,Overcast,0,2013-07-02 16:54:00
1:54 PM,75.9,68.0,76,30.13,9.0,Calm,Calm,-,0.00,Rain,Light Rain,0,2013-07-02 17:54:00
2:54 PM,79.0,68.0,69,30.12,10.0,Calm,Calm,-,0.00,,Mostly Cloudy,0,2013-07-02 18:54:00
3:34 PM,78.8,69.8,74,30.11,10.0,Variable,3.5,-,N/A,,Mostly Cloudy,0,2013-07-02 19:34:00
3:54 PM,80.1,69.1,69,30.10,10.0,Calm,Calm,-,N/A,,Scattered Clouds,0,2013-07-02 19:54:00
4:54 PM,78.1,69.1,74,30.10,10.0,SE,8.1,-,N/A,,Mostly Cloudy,130,2013-07-02 20:54:00
5:54 PM,75.9,69.1,79,30.10,10.0,SE,3.5,-,N/A,,Mostly Cloudy,140,2013-07-02 21:54:00
6:20 PM,73.4,69.8,88,30.12,2.0,NNW,3.5,-,0.04,Rain,Light Rain,340,2013-07-02 22:20:00
6:23 PM,73.4,69.8,88,30.12,1.0,North,3.5,-,0.09,Rain,Heavy Rain,360,2013-07-02 22:23:00
6:30 PM,71.6,69.8,94,30.12,0.5,North,5.8,-,0.21,Fog-Rain,Heavy Rain,360,2013-07-02 22:30:00
6:35 PM,71.6,69.8,94,30.12,1.2,North,3.5,-,0.21,Rain,Light Rain,350,2013-07-02 22:35:00
6:38 PM,71.6,69.8,94,30.12,3.0,North,3.5,-,0.21,Rain,Light Rain,360,2013-07-02 22:38:00
6:54 PM,73.0,70.0,90,30.12,10.0,NNW,3.5,-,0.21,,Overcast,330,2013-07-02 22:54:00
7:54 PM,72.0,69.1,91,30.13,10.0,North,3.5,-,N/A,,Overcast,10,2013-07-02 23:54:00
8:35 PM,71.6,69.8,94,30.14,1.8,Calm,Calm,-,0.04,Rain,Rain,0,2013-07-03 00:35:00
8:45 PM,71.6,69.8,94,30.14,1.2,Calm,Calm,-,0.10,Rain,Rain,0,2013-07-03 00:45:00
8:52 PM,71.6,69.8,94,30.14,1.8,ESE,3.5,-,0.12,Rain,Rain,110,2013-07-03 00:52:00
8:54 PM,71.1,69.1,93,30.14,2.0,Calm,Calm,-,0.13,Rain,Rain,0,2013-07-03 00:54:00
9:00 PM,69.8,69.8,100,30.13,3.0,Calm,Calm,-,0.02,Rain,Rain,0,2013-07-03 01:00:00
9:07 PM,71.6,69.8,94,30.14,6.0,Calm,Calm,-,0.02,Rain,Light Rain,0,2013-07-03 01:07:00
9:30 PM,71.6,69.8,94,30.15,10.0,Calm,Calm,-,0.02,,Mostly Cloudy,0,2013-07-03 01:30:00
9:36 PM,71.6,69.8,94,30.15,10.0,Calm,Calm,-,0.02,,Overcast,0,2013-07-03 01:36:00
9:46 PM,69.8,69.8,100,30.15,9.0,Calm,Calm,-,0.02,,Overcast,0,2013-07-03 01:46:00
9:54 PM,70.0,69.1,97,30.15,10.0,Calm,Calm,-,0.02,,Overcast,0,2013-07-03 01:54:00
10:07 PM,69.8,69.8,100,30.16,10.0,Calm,Calm,-,N/A,,Overcast,0,2013-07-03 02:07:00
10:54 PM,70.0,68.0,93,30.14,10.0,Calm,Calm,-,N/A,,Overcast,0,2013-07-03 02:54:00
11:54 PM,69.1,68.0,96,30.15,10.0,Calm,Calm,-,N/A,,Mostly Cloudy,0,2013-07-03 03:54:00